Location: Berlise
(49.6641°N, 4.1077°E)
Time: 23:39:18
(UTC+00:00)

Cosmos 1689 Rocket - Pass Details

Date: 27 January 2021
Orbit: 353 x 367 km, 97.5° (Epoch: 01 March)

Event Time Altitude Azimuth Distance (km) Brightness Sun altitude
Rises 06:04:02 0° 196° (SSW) 2,211 5.9 -12.7°
Reaches altitude 10° 06:06:17 10° 214° (SW) 1,365 4.6 -12.3°
Enters shadow 06:08:32 20° 265° (W) 921 3.4 -12.0°
